Starlink 5030

operational
NORAD ID: 55418 Int'l Des: 2023-014 Owner: SPXS Country: US Constellation: starlink
LEOCIRCULAR

Über Starlink 5030

Beschreibung wird geladen...

Live-Position

3D-Globus wird geladen...

Nächste Überflüge

Höhenverlauf

Altitude vs Time

uPlot chart will show altitude changes over time

Zweizeiliger Elementsatz

1 55418U 23014AD 25306.45658936 .00000056 00000-0 12488-4 0 9993
2 55418 70.0012 45.2688 0002941 264.0387 96.0437 14.98333318152509
Epoch: 2. Nov. 2025 • Age: 8 hours

Aktueller Status

Höhe 585.3 km
Geschwindigkeit 7.57 km/s
Subsatellitenpunkt 68.60°N, 176.47°W
Startdatum 31. Jan. 2023
Alter 2.7 years
Typ internet

Technische Details

Klassifizierung Payload
Masse 305.00 kg
Trockenmasse 290.00 kg
Gesamtmasse 305.00 kg
Länge 0.20 m
Durchmesser 2.80 m
Spannweite 9.00 m
Form Box + pan
Hersteller SPXS
Bus-Typ Starlink
Phasenstatus In Orbit
Besitzer/Staat SPXS/US

Große Konstellationen

Loading constellations...